Location: Keewatin
(47.4004°N, 93.0827°W)
Time: 20:49:50
(UTC+00:00)

KKS-1 - Pass Details

Date: 27 February 2020
Orbit: 637 x 650 km, 98.3° (Epoch: 09 April)

Event Time Altitude Azimuth Distance (km) Brightness Sun altitude
Rises 01:18:16 0° 25° (NNE) 2,951 ? -15.3°
Reaches altitude 10° 01:20:49 10° 39° (NE) 2,036 ? -15.7°
Enters shadow 01:20:51 10° 39° (NE) 2,024 ? -15.7°
